Location: Roland
(31.1349°N, 85.4372°W)
Time: 19:24:27
(UTC+00:00)

SR - Pass Details

Date: 15 April 2021
Orbit: 573 x 882 km, 66.7° (Epoch: 13 May)

Event Time Altitude Azimuth Distance (km) Brightness Sun altitude
Rises 22:38:16 0° 346° (NNW) 3,449 ? 18.7°
Reaches altitude 10° 22:41:08 10° 357° (N) 2,480 ? 18.1°
Maximum altitude 22:46:06 30° 56° (ENE) 1,440 ? 17.0°
Drops below altitude 10° 22:50:46 10° 117° (ESE) 2,320 ? 16.0°
Sets 22:53:21 0° 128° (SE) 3,190 ? 15.5°
